Location: Palomar Mountain Lodge
(33.3110°N, 116.8495°W)
Time: 14:55:39
(UTC-07:00)

Intelsat 5-1 Rocket - Pass Details

Date: 19 May 2017
Orbit: 310 x 7720 km, 23.9° (Epoch: 24 May)

Event Time Altitude Azimuth Distance (km) Brightness Sun altitude
Rises 20:35:17 0° 268° (W) 5,170 7.8 -10.3°
Reaches altitude 10° 20:41:38 10° 246° (WSW) 2,828 5.9 -11.4°
Maximum altitude 20:44:23 13° 219° (SW) 2,071 4.8 -11.9°
Drops below altitude 10° 20:46:23 10° 191° (S) 1,898 4.3 -12.2°
Enters shadow 20:47:24 - 176° (S) 1,985 4.3 -12.4°
